Regional Weather Roundup
Issued by NWS Kansas City/Pleasant Hill, MO

Home | Current Version | Previous Version | Graphics & Text | Print | Product List | Glossary Off
Versions: 1 2 3 4 5 6 7 8 9 10 11 12 13 14 15 16 17 18 19 20 21 22 23 24 25 26 27 28 29 30 31 32 33 34 35 36 37 38 39 40 41 42 43 44 45 46 47 48 49 50

875
ASUS43 KEAX 130810
RWREAX

WEATHER ROUNDUP FOR EASTERN KANSAS AND NORTHWEST MISSOURI
NATIONAL WEATHER SERVICE KANSAS CITY/PLEASANT HILL MO
200 AM CST WED DEC 13 2017

KSZ040-057-103>105-MOZ028-029-037-043-130900-
...KANSAS CITY METROPOLITAN AREA...

CITY           SKY/WX    TMP DP  RH WIND       PRES   REMARKS
K.C. INTL      CLEAR     36  27  69 SW13      29.81F WCI  27
K.C. DOWNTOWN  CLEAR     38  27  64 SW9       29.83F WCI  31
LEES SUMMIT    CLEAR     34  27  75 S15       29.85F WCI  24
OLATHE - IXD   CLEAR     36  28  73 S17       29.84F WCI  26
OLATHE - OJC   CLEAR     32  27  81 S8        29.84F WCI  25
LAWRENCE       CLEAR     38  28  67 CALM      29.84F

$$

MOZ001>008-011>017-020>025-030>033-038>040-044>046-053-054-130900-
...NORTHERN AND CENTRAL MISSOURI...

CITY           SKY/WX    TMP DP  RH WIND       PRES   REMARKS
ST. JOSEPH     CLEAR     30  26  85 S7        29.79F WCI  23
MOSBY          SUNNY     32  25  74 SE6       29.83F WCI  26
WARRENSBURG    CLEAR     32  23  69 S9        29.89F WCI  24
WHITEMAN AFB   CLEAR     30  21  67 SW14      29.85F WCI  20
CLINTON        CLEAR     32  19  59 SW7       29.93F WCI  26
SEDALIA        CLEAR     34  22  61 SW15      29.90F WCI  24
WARSAW         NOT AVBL
CHILLICOTHE      N/A     32  23  69 S10       29.83F WCI  24
KIRKSVILLE     CLEAR     31  24  75 SW14      29.80F WCI  21

$$

MOZ041-047>049-056>058-063>065-088>090-097-130900-
...EASTERN AND SOUTHERN MISSOURI...

CITY           SKY/WX    TMP DP  RH WIND       PRES   REMARKS
ST. LOUIS INTL CLOUDY    29   9  43 SW9       29.96F WCI  20
SPIRIT OF STL  CLEAR     24  12  60 W5        29.96F WCI  18
COLUMBIA       CLOUDY    27  15  61 S10       29.91F WCI  17
JEFFERSON CITY CLOUDY    29  13  51 SE7       29.95F WCI  22
ROLLA          CLOUDY    26  12  55 SW12      29.97F WCI  16
OSAGE BEACH    CLEAR     26  15  63 SE6       29.97F WCI  19
SPRINGFIELD    CLOUDY    29  14  53 S10       29.96F WCI  20
BRANSON        CLOUDY    34  16  47 SW7       30.01F WCI  28
JOPLIN         CLEAR     38  25  59 S16       29.97F WCI  29
WEST PLAINS    CLOUDY    26  10  50 SW7       30.02F WCI  18

$$

IAZ060-094-KSZ022-034>040-054-083-096-NEZ052-066-093-130900-
...KANSAS...SOUTHEAST NEBRASKA AND IOWA...

CITY           SKY/WX    TMP DP  RH WIND       PRES   REMARKS
TOPEKA         CLEAR     40  29  64 SW9       29.82F WCI  34
MANHATTAN      CLEAR     37  25  61 SW10      29.81F WCI  30
EMPORIA        CLEAR     35  26  69 SW8       29.86F WCI  29
CHANUTE        CLEAR     36  27  69 S14       29.92F WCI  27
WICHITA        CLEAR     32  25  75 S8        29.89F WCI  25
OMAHA          PTCLDY    29  23  78 SE12      29.67F WCI  19
LINCOLN        CLEAR     35  23  61 S3        29.72F
FALLS CITY     CLEAR     39  24  55 SW8       29.74F WCI  33
LAMONI         CLOUDY    30  23  75 S15       29.72F WCI  19
DES MOINES     CLOUDY    31  24  75 S8        29.66F WCI  23

$$





USA.gov is the U.S. government's official web portal to all federal, state and local government web resources and services.